Location: Coopersdale
(40.3556°N, 78.9372°W)
Time: 05:20:23
(UTC+00:00)

Vanguard 2 - Visible Passes

Search period start: 28 January 2021 00:00
Search period end: 07 February 2021 00:00
Orbit: 553 x 2937 km, 32.9° (Epoch: 27 January)

Date Brightness Start Highest point End Pass type
(mag) Time Alt. Az. Time Alt. Az. Time Alt. Az.
28 Jan 10.2 01:50:34 10° SW 01:51:36 13° SW 01:51:36 13° SW visible
28 Jan 9.1 23:59:42 10° WSW 00:03:02 22° SSW 00:07:11 10° SE visible
30 Jan 9.5 00:17:52 10° WSW 00:20:44 17° SSW 00:24:09 10° SSE visible
31 Jan 9.9 00:36:39 10° SW 00:38:26 12° SSW 00:40:25 10° S visible
01 Feb 9.5 23:03:22 10° WSW 23:05:53 16° SSW 23:08:34 10° SSE visible
02 Feb 9.8 23:22:11 10° SW 23:23:30 11° SSW 23:24:50 10° S visible
